Probability
0 0 0 0 0 0 0 0 0 0 0 0 0 0 6 13 13 10 16 16 13 10 13 16 10 10 10 10 16 13 16 19 19 19 16 19 13 16 16 19 16 16 10 10
0 0 0 0 0 0 0 0 0 0 0 0 3 10 13 10 13 13 16 16 13 10 16 16 16 16 13 13 13 13 16 16 19 16 13 10 16 16 16 19 16 16 13 13
0 0 0 0 0 0 0 0 0 0 0 0 10 10 10 10 6 16 16 13 13 10 19 16 16 13 16 13 13 13 10 13 16 16 16 10 19 16 16 19 16 13 13 13
0 0 0 0 0 0 0 0 0 0 0 10 13 13 10 16 13 19 10 10 13 13 13 19 19 13 10 13 10 10 13 16 16 16 13 13 13 16 16 13 16 16 13 13
0 0 0 0 0 0 0 0 0 3 10 10 16 16 13 13 19 16 10 13 13 13 13 16 16 10 10 10 13 13 16 19 19 19 16 10 10 10 10 13 16 13 10 6
0 0 0 0 0 0 0 0 0 6 6 10 13 13 10 16 10 6 6 10 10 13 13 16 6 6 6 6 10 10 6 6 6 10 13 13 6 6 10 10 10 10 3 3
0 0 0 0 0 0 0 0 0 6 6 13 10 6 10 10 10 6 13 16 16 10 6 3 3 6 6 6 6 6 3 3 3 3 6 6 3 3 6 3 6 6 6 3
0 0 0 0 0 0 0 0 3 6 6 10 6 10 6 3 3 3 10 16 16 6 3 0 3 3 3 3 3 3 3 3 3 3 3 6 6 3 6 6 3 6 6 3
0 0 0 0 0 0 0 0 3 3 3 3 3 3 6 6 3 3 6 10 13 10 3 0 3 3 3 3 3 3 3 3 3 6 3 3 3 3 6 6 6 6 6 6
0 0 0 0 0 0 6 6 3 0 0 0 3 6 10 6 0 3 3 3 3 6 0 0 0 0 0 3 3 3 3 3 3 6 6 3 3 3 3 6 6 6 6 6
0 0 0 0 0 3 3 3 3 3 6 3 0 3 3 3 0 6 6 6 6 6 3 3 3 3 3 0 3 3 3 6 6 6 6 3 3 3 3 3 3 3 6 6
0 0 0 0 0 0 0 3 0 3 3 0 0 0 3 0 3 6 6 6 6 6 3 0 3 3 3 3 3 3 3 6 6 6 6 6 3 0 0 0 0 0 3 3
0 0 0 0 0 0 3 0 0 0 3 0 0 0 3 6 3 3 6 6 6 10 0 0 0 0 0 3 3 3 3 3 3 3 3 3 3 3 0 0 0 0 0 0
0 0 0 0 0 0 0 0 0 0 3 3 3 3 3 6 6 3 3 0 0 3 0 0 0 0 0 0 0 3 0 0 0 3 3 3 3 3 0 0 0 0 0 0
0 0 0 0 0 0 0 0 0 0 3 3 3 3 3 0 0 0 0 0 0 3 3 3 0 0 0 0 0 0 0 0 0 0 0 0 0 0 0 0 0 0 0 0
0 0 0 0 0 0 0 0 0 0 0 3 3 3 0 0 0 0 0 0 0 3 3 3 3 0 0 0 0 0 0 0 0 0 0 0 0 0 0 0 0 0 0 0
0 0 0 0 0 0 0 0 0 0 0 3 3 0 0 0 0 0 0 0 0 0 0 3 3 0 0 0 0 0 0 0 0 0 0 0 0 0 0 0 0 0 0 0
0 0 0 0 0 0 0 0 0 0 0 3 0 0 0 0 0 0 0 0 0 0 0 0 0 0 0 0 0 0 0 0 0 0 0 0 0 0 0 0 0 0 0 0
0 0 0 0 0 0 0 0 0 0 3 0 0 0 0 0 0 0 0 0 0 0 0 0 0 0 0 0 0 0 0 0 0 0 0 0 0 0 0 0 0 0 0 0
0 0 0 0 0 0 0 0 0 0 0 0 0 0 0 0 0 0 0 0 0 0 0 0 0 0 0 3 0 0 0 0 0 0 0 0 0 0 0 0 0 0 0 0
0 3 0 0 0 0 0 0 0 0 0 0 0 0 0 0 0 3 0 0 0 0 0 0 0 0 0 3 0 0 0 0 0 0 0 0 0 0 0 0 0 0 0 0
0 3 0 0 0 0 0 0 0 0 0 0 0 0 0 0 3 3 3 3 0 0 0 0 0 0 0 0 0 0 0 0 0 0 0 0 0 0 0 0 0 0 0 0
0 3 0 0 0 3 3 0 0 0 0 0 0 0 0 0 0 3 3 0 0 0 0 0 0 0 0 0 0 0 0 0 0 0 0 0 0 0 0 0 0 0 0 0
0 0 0 0 0 0 0 0 0 0 0 0 0 0 0 0 0 0 0 0 0 0 0 0 0 0 0 0 0 0 0 0 0 0 0 0 0 0 0 0 0 0 0 0
0 0 0 0 0 0 0 0 0 0 0 0 0 0 0 0 0 0 0 0 0 0 0 0 0 0 0 0 0 0 0 0 0 0 0 0 0 0 0 0 0 0 0 0
0 0 0 0 0 0 0 0 0 0 0 0 0 0 0 0 0 0 0 0 0 0 0 0 0 0 0 0 0 0 0 0 0 0 0 0 0 0 0 0 0 3 3 0
0 0 0 0 0 0 0 0 0 0 0 0 0 0 0 0 0 0 0 0 0 0 0 0 0 0 0 0 0 0 0 0 0 0 0 0 0 0 0 0 0 3 3 3
Height
5853 5855 5857 5859 5861 5863 5865 5866 5868 5870 5871 5873 5873 5875 5875 5875 5876 5876 5876 5875 5875 5875 5874 5873 5872 5871 5870 5869 5867 5866 5864 5862 5861 5859 5858 5856 5855 5853 5851 5849 5847 5845 5843 5841
5847 5849 5851 5854 5856 5858 5860 5862 5863 5865 5867 5868 5868 5870 5871 5871 5872 5872 5872 5872 5871 5871 5870 5869 5868 5867 5866 5864 5863 5861 5859 5857 5856 5854 5852 5851 5849 5847 5845 5844 5841 5839 5838 5836
5842 5844 5846 5848 5851 5853 5855 5857 5859 5860 5863 5863 5864 5865 5866 5867 5867 5867 5867 5867 5867 5866 5866 5865 5864 5862 5861 5859 5857 5855 5853 5852 5850 5848 5847 5845 5843 5841 5839 5837 5835 5833 5831 5829
5837 5839 5840 5846 5847 5848 5850 5851 5853 5855 5857 5858 5859 5860 5861 5862 5862 5862 5862 5862 5862 5861 5860 5859 5858 5857 5855 5853 5852 5850 5848 5846 5844 5842 5840 5838 5836 5834 5832 5830 5828 5826 5824 5822
5831 5833 5835 5839 5841 5843 5844 5846 5848 5850 5851 5853 5854 5854 5855 5856 5856 5857 5856 5856 5856 5855 5854 5853 5851 5850 5848 5847 5845 5843 5841 5839 5837 5835 5833 5830 5829 5827 5825 5823 5821 5819 5817 5815
5826 5827 5830 5835 5836 5837 5840 5841 5843 5844 5845 5847 5848 5849 5851 5850 5850 5850 5850 5850 5849 5848 5847 5846 5845 5843 5842 5840 5838 5836 5834 5832 5830 5828 5825 5823 5821 5820 5818 5816 5814 5812 5809 5807
5820 5822 5824 5828 5830 5832 5834 5837 5838 5838 5840 5841 5842 5843 5844 5843 5843 5843 5843 5843 5842 5841 5840 5839 5838 5836 5835 5833 5831 5829 5826 5824 5822 5820 5818 5816 5815 5813 5811 5809 5807 5805 5802 5800
5814 5817 5821 5822 5824 5827 5828 5830 5831 5832 5833 5834 5835 5836 5836 5836 5836 5836 5836 5835 5834 5833 5832 5831 5830 5829 5828 5826 5824 5822 5819 5816 5815 5813 5811 5810 5808 5806 5804 5802 5799 5797 5795 5792
5809 5812 5814 5815 5818 5820 5822 5823 5824 5825 5827 5828 5829 5829 5830 5830 5830 5829 5829 5828 5827 5826 5825 5823 5822 5821 5820 5818 5816 5814 5812 5810 5808 5807 5804 5802 5800 5799 5796 5793 5791 5789 5787 5785
5801 5804 5807 5809 5811 5813 5815 5817 5818 5819 5820 5821 5822 5823 5823 5822 5822 5822 5821 5820 5820 5819 5818 5816 5815 5814 5812 5811 5809 5807 5805 5803 5801 5799 5796 5794 5792 5790 5787 5784 5783 5781 5779 5777
5794 5798 5800 5802 5805 5807 5809 5811 5812 5813 5814 5815 5816 5816 5816 5816 5815 5815 5814 5813 5812 5812 5810 5809 5807 5806 5805 5803 5801 5799 5798 5796 5793 5791 5788 5785 5783 5781 5779 5777 5775 5773 5771 5769
5788 5791 5793 5796 5798 5800 5802 5804 5805 5806 5808 5809 5810 5810 5810 5810 5809 5808 5807 5806 5805 5804 5803 5801 5799 5798 5796 5795 5793 5791 5789 5787 5785 5783 5781 5778 5776 5774 5771 5769 5767 5765 5763 5761
5781 5783 5786 5788 5791 5793 5795 5796 5798 5800 5801 5802 5803 5803 5803 5803 5802 5801 5800 5799 5798 5797 5795 5793 5791 5790 5788 5787 5785 5783 5781 5779 5777 5775 5773 5770 5768 5766 5763 5761 5759 5757 5755 5753
5774 5776 5779 5782 5784 5786 5788 5789 5791 5792 5793 5794 5795 5796 5796 5795 5794 5794 5792 5791 5790 5788 5787 5785 5784 5782 5780 5778 5777 5775 5773 5770 5768 5766 5764 5762 5760 5757 5755 5753 5751 5749 5747 5745
5767 5769 5772 5774 5777 5778 5780 5782 5783 5784 5785 5786 5787 5788 5788 5787 5787 5786 5785 5783 5782 5780 5779 5777 5776 5774 5772 5770 5768 5766 5764 5762 5760 5758 5756 5753 5751 5749 5747 5744 5742 5740 5739 5737
5760 5762 5765 5767 5769 5771 5772 5774 5775 5777 5778 5778 5779 5779 5779 5779 5778 5777 5776 5775 5774 5773 5770 5768 5767 5765 5763 5761 5759 5757 5755 5753 5751 5749 5747 5745 5743 5741 5739 5736 5734 5732 5730 5729
5753 5755 5758 5760 5762 5763 5765 5767 5768 5769 5770 5771 5771 5771 5770 5770 5769 5769 5768 5767 5765 5764 5761 5760 5758 5756 5755 5753 5751 5748 5746 5744 5743 5741 5738 5736 5734 5732 5730 5728 5726 5724 5722 5720
5746 5749 5751 5753 5755 5756 5758 5760 5761 5762 5762 5762 5762 5762 5762 5762 5761 5760 5759 5758 5757 5755 5754 5752 5750 5748 5746 5744 5743 5741 5738 5736 5734 5732 5730 5727 5725 5723 5721 5719 5717 5716 5714 5712
5739 5742 5744 5746 5747 5749 5751 5752 5753 5754 5754 5754 5754 5754 5754 5753 5753 5752 5751 5750 5749 5747 5746 5744 5742 5740 5738 5736 5735 5732 5730 5728 5726 5723 5721 5719 5717 5714 5713 5711 5709 5707 5705 5703
5732 5735 5737 5739 5741 5742 5744 5745 5746 5746 5746 5746 5746 5746 5746 5745 5745 5744 5742 5741 5740 5738 5737 5735 5734 5732 5730 5728 5726 5724 5722 5720 5717 5715 5712 5710 5708 5706 5704 5702 5700 5698 5696 5694
5726 5729 5730 5732 5734 5735 5736 5737 5738 5739 5739 5739 5739 5738 5738 5737 5737 5736 5734 5733 5731 5730 5728 5726 5725 5723 5721 5720 5718 5716 5713 5711 5709 5706 5704 5702 5700 5698 5696 5694 5692 5689 5687 5684
5720 5722 5724 5726 5727 5728 5729 5730 5731 5731 5731 5731 5731 5730 5730 5729 5728 5727 5726 5725 5723 5721 5719 5717 5716 5714 5713 5711 5709 5707 5705 5703 5700 5698 5695 5693 5691 5689 5687 5685 5683 5680 5678 5675
5714 5716 5718 5719 5721 5722 5722 5723 5723 5724 5724 5724 5723 5723 5722 5721 5720 5719 5717 5716 5714 5713 5711 5709 5707 5705 5704 5702 5700 5698 5696 5694 5692 5689 5687 5685 5683 5681 5679 5676 5674 5671 5669 5666
5708 5710 5712 5713 5714 5715 5716 5716 5716 5717 5717 5716 5716 5715 5715 5714 5713 5711 5710 5708 5706 5705 5703 5701 5699 5697 5696 5694 5692 5690 5688 5686 5684 5681 5679 5676 5674 5672 5670 5668 5665 5663 5660 5657
5702 5704 5706 5707 5708 5709 5709 5710 5710 5710 5710 5710 5709 5708 5707 5706 5705 5704 5702 5701 5699 5697 5695 5693 5691 5690 5688 5686 5684 5682 5680 5677 5675 5673 5671 5668 5666 5664 5661 5659 5656 5654 5651 5648
5697 5698 5700 5701 5702 5702 5703 5703 5704 5704 5703 5703 5702 5702 5701 5699 5698 5697 5695 5694 5692 5690 5688 5686 5684 5682 5680 5678 5676 5674 5671 5669 5667 5665 5663 5660 5658 5655 5653 5650 5647 5644 5641 5638
5691 5692 5694 5695 5696 5696 5697 5697 5697 5697 5696 5696 5695 5695 5693 5692 5691 5690 5688 5687 5685 5683 5681 5679 5677 5675 5672 5670 5668 5666 5664 5661 5659 5657 5655 5652 5650 5647 5644 5641 5638 5635 5632 5629
Wind_Speed
23 24 24 23 23 23 23 22 22 21 20 18 18 17 16 15 14 13 13 14 13 13 14 14 15 15 15 16 17 17 18 19 19 19 19 19 19 20 21 22 22 22 22 22
23 23 24 23 23 23 23 22 21 20 19 18 18 17 17 17 16 15 15 14 14 15 15 16 16 16 17 18 19 19 19 20 20 20 21 21 21 22 22 23 23 23 23 23
24 24 24 25 23 23 23 22 22 20 19 20 20 18 18 18 17 16 16 16 16 17 17 17 17 18 19 19 19 20 20 21 21 22 23 23 22 22 23 24 24 24 25 24
25 25 26 24 23 23 23 23 22 20 19 20 20 20 20 19 18 18 17 18 18 19 19 19 19 19 20 20 21 21 22 22 23 24 24 24 24 24 24 24 24 25 25 25
27 26 25 24 24 24 24 23 23 21 20 20 21 22 21 21 21 22 21 20 21 21 21 21 21 21 21 21 22 22 23 23 24 25 25 25 24 23 24 24 25 25 25 26
27 26 26 23 23 23 23 23 22 23 22 22 22 22 22 23 23 23 22 22 22 23 23 23 23 23 23 24 24 24 24 24 24 24 25 25 24 24 24 25 26 26 26 26
26 26 25 24 23 23 23 22 21 22 22 22 22 22 23 23 24 25 24 24 24 24 24 24 25 25 26 26 25 25 25 24 24 24 24 24 25 25 26 26 27 27 27 27
27 27 26 24 24 24 23 22 22 22 21 21 21 22 23 23 23 24 25 25 26 26 26 26 26 26 26 26 26 26 25 24 25 25 26 26 26 27 27 27 28 28 28 27
28 27 26 25 25 25 24 23 22 22 21 21 21 22 22 22 23 23 24 24 25 26 26 26 26 26 26 26 26 26 26 27 27 27 28 28 28 28 28 29 29 29 28 27
28 28 27 27 27 26 25 23 23 22 22 21 22 22 22 22 22 23 24 24 25 25 26 26 27 27 27 28 28 27 28 29 30 29 29 29 29 29 30 30 30 30 30 29
28 28 27 27 27 26 25 25 24 24 23 22 21 21 22 21 21 22 23 24 24 25 26 27 28 29 29 28 28 29 31 31 30 30 29 28 28 29 29 29 30 29 29 29
28 27 27 27 26 26 26 26 26 25 23 22 22 22 22 22 22 23 23 23 24 24 26 27 28 29 28 29 30 30 31 30 29 29 29 28 28 29 30 31 30 30 30 30
29 28 27 26 26 26 26 26 26 25 24 24 23 23 23 24 25 25 25 25 26 26 27 28 28 29 29 29 29 29 29 30 30 30 30 29 29 29 30 30 30 29 29 29
30 29 28 27 27 27 28 28 28 26 26 25 25 25 25 25 25 26 26 27 27 27 27 28 29 29 29 30 30 30 29 29 29 30 30 31 30 30 29 29 28 28 28 28
30 29 28 28 27 27 27 28 27 26 26 26 26 26 26 25 25 25 26 27 28 28 28 29 29 28 28 29 30 30 29 29 30 31 31 30 30 29 29 29 28 28 29 28
29 29 28 28 27 26 26 26 26 26 27 27 26 26 26 27 27 26 27 28 28 29 30 29 28 28 28 29 29 29 29 29 29 30 30 29 29 29 30 29 29 28 28 28
27 26 26 26 26 25 25 26 26 26 26 27 27 27 27 27 27 28 28 29 29 29 28 28 28 27 28 29 29 28 28 29 30 30 31 30 29 30 30 29 28 28 28 28
26 26 26 26 26 27 26 26 25 26 26 26 26 27 27 27 27 28 28 28 28 28 28 28 27 28 27 28 28 28 27 28 29 30 29 29 29 29 29 29 29 29 30 30
26 26 25 25 25 25 25 25 25 26 27 27 27 27 26 27 27 27 28 28 28 28 28 27 26 26 26 26 27 27 27 28 28 28 28 28 28 28 28 28 28 29 30 31
24 24 25 25 25 25 25 26 26 26 26 27 27 27 28 28 28 28 28 28 29 28 28 29 28 28 28 28 29 29 29 29 29 29 28 29 28 28 28 28 29 29 30 31
23 24 24 24 23 23 23 24 25 25 25 26 26 26 27 26 26 27 27 28 28 28 29 29 29 28 28 29 29 29 29 29 28 28 28 28 28 27 27 28 29 29 30 31
23 23 23 22 22 23 23 23 23 24 24 24 24 25 25 25 25 26 26 27 27 27 28 28 28 28 28 28 28 28 28 28 27 27 27 28 28 27 28 28 29 30 30 31
21 21 21 21 22 22 23 23 23 23 23 23 23 24 24 24 24 24 25 25 25 26 27 27 26 27 26 27 27 27 27 27 27 27 27 27 27 27 28 29 29 29 29 30
21 21 21 21 21 22 22 22 22 22 21 21 22 22 22 23 24 24 24 24 25 25 25 24 24 24 24 25 26 27 27 27 27 27 28 27 27 27 28 29 29 29 30 30
20 19 19 20 20 21 21 22 21 22 22 21 21 22 22 23 22 23 24 24 24 24 24 23 23 24 24 25 26 26 26 26 26 27 27 27 27 27 28 28 29 29 31 31
20 19 19 20 20 20 20 21 21 21 21 22 22 22 22 22 22 22 22 22 23 23 23 23 24 24 24 24 25 25 25 25 25 26 27 27 27 28 29 29 29 30 30 31
20 19 19 19 19 20 20 20 20 20 21 21 22 22 22 21 21 21 21 21 21 22 21 22 23 23 23 23 24 24 25 25 25 26 26 26 27 27 28 28 28 29 29 29
Wind_Direction
243 243 243 245 246 247 249 253 257 259 261 261 260 260 261 262 266 269 270 268 271 273 276 279 284 288 291 293 295 297 297 295 293 294 294 295 296 296 297 297 296 295 295 296
245 244 244 245 245 248 251 254 258 258 258 256 254 255 257 261 264 265 267 270 273 274 277 279 282 283 287 290 292 294 296 297 295 294 294 294 295 295 295 295 294 294 294 295
246 245 245 244 246 249 253 256 259 261 259 255 254 256 257 262 266 265 265 268 271 274 277 279 281 283 287 289 291 294 294 294 294 294 293 293 293 292 291 292 293 293 294 295
247 246 247 247 248 251 255 256 257 260 260 259 257 256 258 262 264 264 266 268 268 272 277 279 279 281 283 286 290 292 291 291 292 291 291 292 292 292 291 291 293 294 294 295
249 250 249 248 249 252 255 257 257 258 258 261 261 258 259 265 267 267 269 270 271 273 275 277 278 279 281 284 287 288 289 289 290 290 290 289 290 291 292 292 294 293 294 294
248 250 249 250 250 252 255 256 257 257 259 261 262 261 261 265 267 267 268 269 269 271 272 273 275 277 280 283 285 285 286 287 289 289 290 290 291 292 293 295 296 294 295 296
247 249 251 253 254 254 256 258 259 259 260 262 262 264 265 266 268 270 271 271 270 271 272 273 273 276 279 282 284 284 283 285 287 289 290 292 293 293 294 294 295 295 295 295
245 247 250 253 254 255 257 259 261 262 261 262 262 264 267 268 271 274 276 275 271 271 272 272 274 276 278 280 281 282 284 285 287 290 291 292 292 293 294 295 295 293 293 293
245 248 249 251 253 254 254 258 262 264 262 261 262 265 268 269 270 273 276 275 274 273 273 273 274 275 277 279 282 282 283 286 288 289 290 291 292 292 293 293 293 292 291 290
247 248 251 252 252 253 254 257 261 263 263 263 263 266 271 272 273 273 275 274 275 276 274 275 274 277 277 279 283 284 286 287 288 290 290 290 291 291 293 293 293 292 292 292
247 249 252 252 253 254 255 258 260 262 264 265 267 269 273 276 276 276 276 277 277 277 277 278 277 278 279 282 285 285 287 289 290 291 294 294 293 293 294 294 295 293 294 293
246 247 250 251 251 253 256 258 260 261 262 265 268 268 272 275 276 277 277 278 278 279 279 281 283 281 283 287 288 288 287 289 290 292 292 294 295 294 293 293 292 291 292 291
244 245 248 251 252 253 256 258 260 262 263 265 267 269 270 273 274 276 276 277 278 279 283 284 284 284 286 287 287 287 288 289 289 290 291 292 293 291 291 292 290 290 290 292
245 247 250 251 252 254 255 255 256 259 261 264 266 269 271 272 273 275 277 278 279 279 282 285 286 285 284 285 286 287 288 289 289 289 291 291 291 290 289 290 290 290 292 293
246 249 249 250 251 254 255 254 255 259 261 263 266 269 270 271 273 275 277 278 280 283 283 284 286 286 284 285 287 287 287 289 288 290 291 291 291 291 290 289 288 289 291 293
245 248 249 251 252 254 256 257 260 262 265 266 268 272 272 273 273 276 280 281 282 284 285 285 286 287 287 287 289 290 288 288 289 289 290 291 291 292 292 292 290 290 290 293
243 245 247 248 249 252 256 260 264 265 266 267 269 272 275 275 276 279 283 285 285 286 288 288 289 289 288 287 288 290 289 288 288 289 291 292 293 293 294 295 294 293 293 293
245 246 247 249 251 253 256 259 262 263 264 267 271 273 274 275 275 279 281 284 287 288 289 290 289 288 288 288 289 291 291 291 291 291 291 291 292 293 293 292 293 294 294 295
246 247 247 249 251 254 257 261 264 267 268 270 271 272 274 276 277 279 281 283 285 287 289 290 290 290 290 289 290 291 291 293 293 293 292 293 293 293 293 293 293 293 294 294
245 246 248 251 254 256 259 263 267 270 271 273 273 274 276 277 279 280 281 283 285 286 287 288 289 289 290 290 291 293 294 294 294 293 293 293 293 293 293 293 293 293 293 294
243 245 248 251 253 257 260 263 266 269 272 273 274 275 276 278 281 282 283 285 287 287 288 287 287 288 289 291 291 292 293 293 294 293 293 294 293 293 294 294 295 295 295 294
242 245 248 252 255 257 260 264 268 271 272 273 274 275 276 278 280 281 283 285 287 289 289 288 287 288 289 289 290 291 292 293 294 295 294 293 293 293 294 295 296 297 296 296
244 246 249 253 258 261 264 267 270 273 274 275 276 277 279 279 280 281 282 285 286 287 288 288 288 288 288 289 291 293 294 293 294 294 294 294 294 294 295 296 296 298 298 298
245 247 250 255 259 263 267 269 270 272 273 274 275 278 279 280 281 283 283 284 286 288 289 289 290 290 290 289 291 292 293 294 294 295 296 295 294 295 296 296 297 297 298 298
247 253 257 258 261 264 267 269 271 272 274 275 277 279 281 283 284 286 285 285 286 288 289 290 290 291 292 293 293 293 294 295 296 296 296 296 296 296 297 297 298 298 298 298
251 255 259 262 265 267 269 271 272 275 276 275 277 279 281 282 283 285 286 288 290 290 290 291 291 293 293 294 295 295 295 296 298 299 298 297 297 297 298 298 298 299 299 299
254 256 258 261 262 266 270 271 272 273 275 278 280 281 282 284 285 286 287 289 291 292 294 295 295 294 295 296 297 298 299 298 300 301 300 300 301 301 301 302 301 301 301 301